Regional Weather Roundup
Issued by NWS

Home | Current Version | Previous Version | Graphics & Text | Print | Product List | Glossary On
Versions: 1 2 3 4 5 6 7 8 9 10 11 12 13 14 15 16 17 18 19 20 21 22 23 24 25 26 27 28 29 30 31 32 33 34 35 36 37 38 39 40 41 42 43 44 45 46 47 48 49 50
000
ASUS43 KLSX 061057
RWRMO

WEATHER SUMMARY FOR MISSOURI
NATIONAL WEATHER SERVICE SPRINGFIELD MO
600 AM CDT FRI MAY 06 2016

NOTE: "FAIR" INDICATES FEW OR NO CLOUDS BELOW 12,000 FEET WITH NO
       SIGNIFICANT WEATHER AND/OR OBSTRUCTIONS TO VISIBILITY.
       CURRENT SKY AND/OR WEATHER CONDITIONS ARE NOT AVAILABLE FOR
       CHILLICOTHE AND FARMINGTON.

MOZ001>031-035>038-043-044-053-054-061200-
...NORTHERN AND WESTERN MISSOURI...

CITY           SKY/WX    TMP DP  RH WIND       PRES   REMARKS
KANSAS CTY INT PTCLDY    49  40  71 S6        30.06R
LEE`S SUMMIT   CLEAR     54  36  50 SW6       30.07R
ST JOSEPH      CLEAR     49  46  90 S3        30.05R
CHILLICOTHE      N/A     45  43  93 CALM      30.06S

$$
MOZ066>068-077>081-088>096-101>105-061200-
...SOUTHWEST MISSOURI...

CITY           SKY/WX    TMP DP  RH WIND       PRES   REMARKS
SPRINGFIELD    CLEAR     46  37  71 S5        30.09R
JOPLIN         CLEAR     47  40  76 CALM      30.08R

$$
MOZ032>034-039>042-045>050-055>058-069>072-061200-
...CENTRAL MISSOURI...

CITY           SKY/WX    TMP DP  RH WIND       PRES   REMARKS
COLUMBIA       NOT AVBL
JEFFERSON CITY CLEAR     42  39  89 CALM      30.08R
ROLLA          CLEAR     44  38  79 SW6       30.07R
SEDALIA        CLEAR     50  38  63 SW8       30.08R
WARRENSBURG    CLEAR     43  41  93 CALM      30.08R

$$
MOZ051-052-059>065-061200-
...EAST CENTRAL MISSOURI...

CITY           SKY/WX    TMP DP  RH WIND       PRES   REMARKS
ST LOUIS INTL  CLEAR     49  41  74 W3        30.05S

$$
MOZ072>076-082>087-097>100-106>115-061200-
...SOUTH CENTRAL AND SOUTHEAST MISSOURI...

CITY           SKY/WX    TMP DP  RH WIND       PRES   REMARKS
CAPE GIRARDEAU CLEAR     41  40  96 W5        30.05S
POPLAR BLUFF   CLEAR     46  42  86 NW3       30.06R
WEST PLAINS    CLEAR     46  38  73 W6        30.10R

$$


USA.gov is the U.S. government's official web portal to all federal, state and local government web resources and services.